• En Colombia
  • Lista de países
  • Para 7 días
  • Temperatura del agua
  • El tiempo en el mapa
  • Informadores
  • user-avatar
    Iniciar sesión

    Tiempo cada hora Tirana

    Hoy, 18 Febrero, Martes

    Tiempo Temperatura Precipitaciones Viento Presión Humedad
    00:00 +9°C° 0 mm 1 mps 759 mmHg 73%
    01:00 +9°C° 0 mm 1 mps 758 mmHg 74%
    02:00 +9°C° 0 mm 1 mps 758 mmHg 75%
    03:00 +9°C° 0 mm 1 mps 758 mmHg 75%
    04:00 +9°C° 0 mm 1 mps 758 mmHg 75%
    05:00 +8°C° 0 mm 1 mps 758 mmHg 75%
    06:00 +8°C° 0 mm 1 mps 758 mmHg 74%
    07:00 +8°C° 0 mm 1 mps 758 mmHg 75%
    08:00 +10°C° 0 mm 1 mps 758 mmHg 69%
    09:00 +12°C° 0 mm 1 mps 758 mmHg 64%
    10:00 +14°C° 0 mm 2 mps 758 mmHg 58%
    11:00 +14°C° 0 mm 2 mps 757 mmHg 57%
    12:00 +14°C° 0 mm 3 mps 757 mmHg 57%
    13:00 +16°C° 0 mm 3 mps 756 mmHg 56%
    14:00 +14°C° 0 mm 3 mps 756 mmHg 60%
    15:00 +14°C° 0 mm 3 mps 756 mmHg 64%
    16:00 +13°C° 0 mm 4 mps 756 mmHg 68%
    17:00 +12°C° 0 mm 3 mps 756 mmHg 73%
    18:00 +12°C° 0 mm 2 mps 757 mmHg 78%
    19:00 +10°C° 0 mm 2 mps 757 mmHg 83%
    20:00 +10°C° 0 mm 2 mps 757 mmHg 83%
    21:00 +10°C° 0 mm 1 mps 757 mmHg 84%
    22:00 +10°C° 0 mm 1 mps 757 mmHg 84%
    23:00 +10°C° 0 mm 1 mps 757 mmHg 84%

    Mañana, 19 Febrero, Miércoles

    Tiempo Temperatura Precipitaciones Viento Presión Humedad
    00:00 +10°C° 0 mm 1 mps 757 mmHg 84%
    01:00 +10°C° 0 mm 1 mps 757 mmHg 84%
    02:00 +9°C° 0 mm 1 mps 757 mmHg 84%
    03:00 +9°C° 0 mm 1 mps 756 mmHg 85%
    04:00 +9°C° 0 mm 1 mps 756 mmHg 85%
    05:00 +9°C° 0 mm 1 mps 756 mmHg 84%
    06:00 +9°C° 0 mm 1 mps 756 mmHg 83%
    07:00 +8°C° 0 mm 2 mps 756 mmHg 82%
    08:00 +11°C° 0 mm 1 mps 756 mmHg 77%
    09:00 +12°C° 0 mm 1 mps 756 mmHg 72%
    10:00 +14°C° 0 mm 1 mps 756 mmHg 67%
    11:00 +14°C° 0 mm 1 mps 755 mmHg 66%
    12:00 +15°C° 0 mm 2 mps 755 mmHg 65%
    13:00 +16°C° 0 mm 2 mps 755 mmHg 64%
    14:00 +15°C° 0.1 mm 2 mps 754 mmHg 68%
    15:00 +14°C° 0.1 mm 3 mps 754 mmHg 71%
    16:00 +13°C° 0.1 mm 3 mps 753 mmHg 74%
    17:00 +13°C° 0.4 mm 3 mps 753 mmHg 79%
    18:00 +12°C° 0.4 mm 3 mps 753 mmHg 84%
    19:00 +11°C° 0.4 mm 4 mps 753 mmHg 90%
    20:00 +11°C° 0.8 mm 3 mps 753 mmHg 91%
    21:00 +10°C° 0.8 mm 3 mps 753 mmHg 92%
    22:00 +10°C° 0.8 mm 3 mps 753 mmHg 92%
    23:00 +10°C° 0.6 mm 3 mps 753 mmHg 91%

    Pasado mañana, 20 Febrero, Jueves

    Tiempo Temperatura Precipitaciones Viento Presión Humedad
    00:00 +10°C° 0.6 mm 4 mps 752 mmHg 90%
    01:00 +10°C° 0.6 mm 4 mps 752 mmHg 89%
    02:00 +10°C° 0.6 mm 4 mps 752 mmHg 89%
    03:00 +10°C° 0.6 mm 4 mps 752 mmHg 89%
    04:00 +8°C° 0.6 mm 4 mps 752 mmHg 90%
    05:00 +8°C° 0.8 mm 5 mps 752 mmHg 90%
    06:00 +8°C° 0.8 mm 5 mps 752 mmHg 90%
    07:00 +8°C° 0.8 mm 6 mps 752 mmHg 91%
    08:00 +8°C° 0.5 mm 6 mps 753 mmHg 88%
    09:00 +8°C° 0.5 mm 6 mps 753 mmHg 86%
    10:00 +8°C° 0.5 mm 6 mps 754 mmHg 84%
    11:00 +9°C° 0.3 mm 6 mps 754 mmHg 77%
    12:00 +9°C° 0.3 mm 6 mps 754 mmHg 71%
    13:00 +10°C° 0.3 mm 6 mps 754 mmHg 65%
    14:00 +10°C° 0 mm 7 mps 754 mmHg 62%
    15:00 +10°C° 0 mm 7 mps 754 mmHg 59%
    16:00 +11°C° 0 mm 8 mps 754 mmHg 56%
    17:00 +9°C° 0 mm 8 mps 755 mmHg 60%
    18:00 +8°C° 0 mm 7 mps 755 mmHg 63%
    19:00 +6°C° 0 mm 7 mps 756 mmHg 67%
    20:00 +5°C° 0 mm 7 mps 756 mmHg 68%
    21:00 +5°C° 0 mm 7 mps 756 mmHg 68%
    22:00 +4°C° 0 mm 6 mps 757 mmHg 69%
    23:00 +4°C° 0 mm 6 mps 757 mmHg 69%

    21 Febrero, Viernes

    Tiempo Temperatura Precipitaciones Viento Presión Humedad
    00:00 +4°C° 0 mm 6 mps 757 mmHg 70%
    01:00 +3°C° 0 mm 6 mps 757 mmHg 70%
    02:00 +3°C° 0 mm 6 mps 757 mmHg 70%
    03:00 +3°C° 0 mm 5 mps 757 mmHg 70%
    04:00 +2°C° 0 mm 5 mps 758 mmHg 70%
    05:00 +2°C° 0 mm 5 mps 758 mmHg 69%
    06:00 +3°C° 0 mm 4 mps 758 mmHg 69%
    07:00 +3°C° 0 mm 4 mps 758 mmHg 68%
    14:00 +12°C° 0 mm 3 mps 758 mmHg 39%
    15:00 +12°C° 0 mm 4 mps 758 mmHg 43%
    16:00 +12°C° 0 mm 4 mps 758 mmHg 47%
    17:00 +11°C° 0 mm 4 mps 759 mmHg 51%
    18:00 +8°C° 0 mm 4 mps 759 mmHg 56%
    19:00 +7°C° 0 mm 4 mps 760 mmHg 60%
    20:00 +7°C° 0 mm 4 mps 760 mmHg 59%
    21:00 +6°C° 0 mm 4 mps 761 mmHg 59%
    22:00 +6°C° 0 mm 4 mps 761 mmHg 59%
    23:00 +6°C° 0 mm 4 mps 761 mmHg 58%

    22 Febrero, Sábado

    Tiempo Temperatura Precipitaciones Viento Presión Humedad
    00:00 +5°C° 0 mm 3 mps 761 mmHg 57%
    01:00 +5°C° 0 mm 3 mps 762 mmHg 57%
    02:00 +5°C° 0 mm 4 mps 762 mmHg 57%
    03:00 +5°C° 0 mm 4 mps 762 mmHg 57%
    04:00 +4°C° 0 mm 4 mps 762 mmHg 58%
    05:00 +4°C° 0 mm 4 mps 762 mmHg 59%
    06:00 +4°C° 0 mm 4 mps 762 mmHg 61%
    07:00 +4°C° 0 mm 4 mps 763 mmHg 63%
    08:00 +6°C° 0 mm 4 mps 763 mmHg 57%
    09:00 +8°C° 0 mm 4 mps 763 mmHg 52%
    10:00 +11°C° 0 mm 4 mps 764 mmHg 47%
    11:00 +12°C° 0 mm 5 mps 764 mmHg 43%
    12:00 +13°C° 0 mm 5 mps 763 mmHg 40%
    13:00 +14°C° 0 mm 5 mps 763 mmHg 37%
    14:00 +13°C° 0 mm 6 mps 763 mmHg 38%
    15:00 +13°C° 0 mm 6 mps 763 mmHg 40%
    16:00 +11°C° 0 mm 7 mps 763 mmHg 42%
    17:00 +10°C° 0 mm 7 mps 763 mmHg 44%
    18:00 +8°C° 0 mm 6 mps 764 mmHg 47%
    19:00 +7°C° 0 mm 6 mps 764 mmHg 49%
    20:00 +7°C° 0 mm 6 mps 765 mmHg 49%
    21:00 +6°C° 0 mm 5 mps 765 mmHg 50%
    22:00 +6°C° 0 mm 4 mps 765 mmHg 50%
    23:00 +5°C° 0 mm 4 mps 765 mmHg 50%

    23 Febrero, Domingo

    Tiempo Temperatura Precipitaciones Viento Presión Humedad
    00:00 +5°C° 0 mm 4 mps 765 mmHg 50%
    01:00 +5°C° 0 mm 4 mps 765 mmHg 51%
    02:00 +5°C° 0 mm 3 mps 765 mmHg 50%
    03:00 +5°C° 0 mm 3 mps 764 mmHg 50%
    04:00 +5°C° 0 mm 2 mps 764 mmHg 50%
    05:00 +5°C° 0 mm 2 mps 764 mmHg 50%
    06:00 +6°C° 0 mm 2 mps 764 mmHg 51%
    07:00 +6°C° 0 mm 2 mps 764 mmHg 51%
    08:00 +8°C° 0 mm 1 mps 764 mmHg 47%
    09:00 +10°C° 0 mm 1 mps 764 mmHg 43%
    10:00 +12°C° 0 mm 1 mps 764 mmHg 39%
    11:00 +13°C° 0 mm 1 mps 764 mmHg 39%
    12:00 +13°C° 0 mm 2 mps 763 mmHg 39%
    13:00 +14°C° 0 mm 2 mps 763 mmHg 38%
    14:00 +14°C° 0 mm 2 mps 762 mmHg 42%
    15:00 +14°C° 0 mm 2 mps 762 mmHg 46%
    16:00 +13°C° 0 mm 2 mps 762 mmHg 50%
    17:00 +12°C° 0 mm 2 mps 762 mmHg 54%
    18:00 +10°C° 0 mm 2 mps 762 mmHg 57%
    19:00 +9°C° 0 mm 1 mps 762 mmHg 61%
    20:00 +9°C° 0 mm 1 mps 762 mmHg 62%
    21:00 +9°C° 0 mm 1 mps 762 mmHg 62%
    22:00 +9°C° 0 mm 1 mps 763 mmHg 63%
    23:00 +9°C° 0 mm 1 mps 762 mmHg 64%
    Mostrar más